Regional Weather Roundup
Issued by NWS Goodland, KS

Home | Current Version | Previous Version | Graphics & Text | Print | Product List | Glossary On
Versions: 1 2 3 4 5 6 7 8 9 10 11 12 13 14 15 16 17 18 19 20 21 22 23 24 25 26 27 28 29 30 31 32 33 34 35 36 37 38 39 40 41 42 43 44 45 46 47 48 49 50
000
ASUS43 KGLD 120208
RWRGLD

GOODLAND FORECAST AREA HOURLY WEATHER ROUNDUP
NATIONAL WEATHER SERVICE GOODLAND KS
700 PM MST THU FEB 11 2016

...OFFICIAL OBSERVATIONS...

CITY           SKY/WX    TMP DP  RH WIND       PRES   REMARKS
GOODLAND KS    CLOUDY    37  28  70 NW7       30.20R
HILL CITY KS   CLOUDY    32  30  92 W3        30.15R
IMPERIAL NEB   CLOUDY    45  31  58 NW14      30.16R
MCCOOK NEB     CLOUDY    37  31  78 W7        30.13R
AKRON CO       CLOUDY    38  27  64 N8        30.22R
BURLINGTON CO  CLOUDY    37  28  70 W10       30.22R
LIMON CO       CLOUDY    31  27  85 NW6       30.25R
$$

...UNOFFICIAL OBSERVATIONS...

CITY           SKY/WX    TMP DP  RH WIND       PRES   REMARKS
COLBY KS       CLEAR     37  34  87 W10       30.18S
GOVE KS          N/A     44  32  63 MISG        N/A
LENORA KS        N/A     40  32  73 MISG        N/A
NORTON KS      CLEAR     34  28  80 SW8       30.12S
SHARON SPRINGS   N/A     42  32  67 NW7         N/A
TRENTON NEB      N/A     43  32  65 MISG        N/A
KIT CARSON CO    N/A     38  28  66 MISG        N/A
YUMA CO          N/A     39  31  72 N5          N/A
$$



USA.gov is the U.S. government's official web portal to all federal, state and local government web resources and services.